Stations météo

réclame
Mon MeteoGroup
D15-FA-1, Pays-Bas (6201): Température de l'air & dewpoint: 17.11.2017 12:00:00 - 23.11.2017 12:00:00 (CET)D15-FA-1, Pays-Bas (6201): Vitesse du vent & gusts: 17.11.2017 12:00:00 - 23.11.2017 12:00:00 (CET)D15-FA-1, Pays-Bas (6201): Direction du vent: 17.11.2017 12:00:00 - 23.11.2017 12:00:00 (CET)D15-FA-1, Pays-Bas (6201): reduced air pressure: 17.11.2017 12:00:00 - 23.11.2017 12:00:00 (CET)D15-FA-1, Pays-Bas (6201): visibility: 17.11.2017 12:00:00 - 23.11.2017 12:00:00 (CET)
Date & Time tt [°C] td [°C] ff [km/h] ff [knt] fx [km/h] fx [knt] dd ppp [hPa] vv [km]
23.11.2017 12:00:00 9,0 3,0 55 30 - - W 990,4 10
23.11.2017 11:00:00 9,3 3,2 70 38 79 43 W 988,5 10
23.11.2017 10:00:00 9,6 7,1 70 38 - - W 986,3 6
23.11.2017 09:00:00 12,2 10,6 65 35 79 43 SW 983,5 10
23.11.2017 08:00:00 12,0 10,2 65 35 76 41 SSW 982,9 8
23.11.2017 07:00:00 12,7 9,4 70 38 - - SSW 982,6 10
23.11.2017 06:00:00 11,4 10,2 72 39 97 53 SSW 983,1 3,1
23.11.2017 05:00:00 13,4 9,2 78 42 97 53 S 982,1 10
23.11.2017 04:00:00 13,4 9,4 74 40 - - S 982,3 10
23.11.2017 03:00:00 13,4 9,4 72 39 76 41 S 982,8 10
23.11.2017 02:00:00 13,5 9,3 72 39 76 41 S 983,6 10
23.11.2017 01:00:00 13,4 8,9 72 39 - - S 984,3 10
23.11.2017 00:00:00 13,6 8,3 76 41 79 43 S 985,3 10
22.11.2017 23:00:00 13,6 8,4 70 38 86 47 S 985,9 10
22.11.2017 22:00:00 13,3 7,8 76 41 - - S 986,4 10
22.11.2017 21:00:00 13,2 7,4 72 39 76 41 S 986,5 10
22.11.2017 20:00:00 12,9 9,2 70 38 76 41 S 988,4 10
22.11.2017 19:00:00 12,5 9,3 67 36 - - S 989,1 10
22.11.2017 18:00:00 12,8 9,5 67 36 76 41 S 989,6 10
22.11.2017 17:00:00 12,8 9,6 63 34 65 35 S 990,3 10
22.11.2017 16:00:00 12,7 10,0 61 33 - - S 991,1 10
22.11.2017 15:00:00 12,4 10,0 61 33 72 39 SSW 991,8 10
22.11.2017 14:00:00 12,2 10,2 67 36 76 41 SSW 992,6 10
22.11.2017 13:00:00 12,4 9,9 68 37 - - SSW 993,3 10
22.11.2017 12:00:00 12,6 9,9 76 41 79 43 SW 993,8 10
22.11.2017 11:00:00 13,0 9,8 74 40 83 45 SW 993,9 10
22.11.2017 10:00:00 13,0 10,2 63 34 - - SW 994,2 10
22.11.2017 09:00:00 13,0 11,1 48 26 50 27 SW 994,7 10
22.11.2017 08:00:00 12,9 11,3 44 24 47 25 SW 995,2 5
22.11.2017 07:00:00 12,8 11,2 48 26 - - SW 994,9 10
22.11.2017 06:00:00 13,0 11,2 50 27 54 29 SW 995,4 10
22.11.2017 05:00:00 12,8 11,1 52 28 50 27 SW 995,9 10
22.11.2017 04:00:00 12,8 11,1 48 26 - - SW 995,5 10
22.11.2017 03:00:00 12,7 11,0 52 28 54 29 SW 995,8 10
22.11.2017 02:00:00 12,7 10,9 50 27 54 29 SW 996,2 10
22.11.2017 01:00:00 12,6 10,7 50 27 - - SW 996,7 10
22.11.2017 00:00:00 11,8 10,9 50 27 65 35 SW 997,1 3,6
21.11.2017 23:00:00 11,1 10,8 55 30 61 33 SW 998,1 3,1
21.11.2017 22:00:00 11,6 10,1 42 23 - - SW 999,2 10
21.11.2017 21:00:00 11,8 9,7 42 23 43 23 SW 1000,0 10
21.11.2017 20:00:00 11,7 9,8 37 20 43 23 SW 1000,6 10
21.11.2017 19:00:00 11,9 10,4 39 21 - - WSW 1001,7 10
21.11.2017 18:00:00 12,1 10,7 37 20 40 21 WSW 1002,0 10
21.11.2017 17:00:00 12,2 11,1 35 19 36 19 WSW 1002,6 10
21.11.2017 16:00:00 11,8 11,5 31 17 - - WSW 1003,1 9
21.11.2017 15:00:00 11,6 11,4 22 12 29 16 WSW 1003,7 5
21.11.2017 14:00:00 11,2 10,8 21 11 25 14 S 1004,1 7
21.11.2017 13:00:00 11,2 10,9 15 8 - - S 1005,4 10
21.11.2017 12:00:00 10,7 10,4 16 9 18 10 SE 1006,2 10
21.11.2017 11:00:00 10,2 9,8 9 5 11 6 SE 1007,0 10
21.11.2017 10:00:00 9,8 9,5 5 3 - - ESE 1007,1 5
21.11.2017 09:00:00 9,7 9,3 4 2 14 8 N 1007,3 3,0
21.11.2017 08:00:00 9,9 9,2 9 5 11 6 NW 1007,2 9
21.11.2017 07:00:00 10,2 9,1 9 5 - - WNW 1007,2 9
21.11.2017 06:00:00 10,2 9,1 18 10 18 10 W 1007,2 10
21.11.2017 05:00:00 10,4 9,0 22 12 25 14 WNW 1007,4 10
21.11.2017 04:00:00 10,7 8,5 26 14 - - WNW 1007,7 10
21.11.2017 03:00:00 10,5 9,0 28 15 32 18 W 1007,7 10
21.11.2017 02:00:00 10,4 9,4 28 15 32 18 W 1007,6 10
21.11.2017 01:00:00 10,2 9,6 18 10 - - W 1007,8 9
21.11.2017 00:00:00 10,3 8,9 21 11 22 12 W 1007,7 10
20.11.2017 23:00:00 10,4 8,6 18 10 29 16 NNW 1007,0 10
20.11.2017 22:00:00 10,8 8,5 31 17 - - WNW 1007,3 10
20.11.2017 21:00:00 10,5 8,7 26 14 36 19 NNW 1006,2 10
20.11.2017 20:00:00 11,1 9,7 34 18 36 19 WNW 1006,4 10
20.11.2017 19:00:00 11,2 9,6 34 18 - - WNW 1006,1 10
20.11.2017 18:00:00 11,0 10,3 34 18 40 21 WNW 1005,6 9
20.11.2017 17:00:00 10,9 10,2 28 15 32 18 W 1005,5 10
20.11.2017 16:00:00 10,7 10,2 22 12 - - W 1005,8 10
20.11.2017 15:00:00 10,4 9,6 18 10 25 14 - 1006,1 10
20.11.2017 14:00:00 10,2 9,7 22 12 32 18 WSW 1006,6 7
20.11.2017 13:00:00 9,7 9,1 29 16 - - SW 1007,7 3,2
20.11.2017 12:00:00 9,7 9,2 28 15 32 18 SW 1009,0 3,2
20.11.2017 11:00:00 9,2 8,2 31 17 36 19 SW 1010,1 10
20.11.2017 10:00:00 8,6 7,3 31 17 - - S 1010,9 10
20.11.2017 09:00:00 7,8 6,1 29 16 32 18 S 1012,0 10
20.11.2017 08:00:00 7,3 4,4 28 15 32 18 SW 1013,1 10
20.11.2017 07:00:00 6,9 4,0 18 10 - - - 1014,2 10
20.11.2017 06:00:00 6,8 2,8 16 9 25 14 - 1015,4 10
20.11.2017 05:00:00 6,4 2,4 26 14 32 18 W 1016,3 10
20.11.2017 04:00:00 7,6 0,6 28 15 - - - 1016,6 10
20.11.2017 03:00:00 8,2 2,1 31 17 32 18 W 1017,1 10
20.11.2017 02:00:00 8,2 2,6 34 18 40 21 W 1017,6 10
20.11.2017 01:00:00 8,4 1,5 34 18 - - W 1018,2 10
20.11.2017 00:00:00 8,5 0,6 34 18 36 19 W 1018,7 10
19.11.2017 23:00:00 8,7 1,4 35 19 36 19 WNW 1018,8 10
19.11.2017 22:00:00 8,8 1,8 39 21 - - WNW 1019,0 10
19.11.2017 21:00:00 8,6 2,6 42 23 47 25 WNW 1019,1 10
19.11.2017 20:00:00 8,6 2,9 48 26 47 25 NW 1019,0 10
19.11.2017 19:00:00 8,5 4,0 42 23 - - NW 1018,7 10
19.11.2017 18:00:00 8,4 3,6 44 24 47 25 NNW 1018,6 10
19.11.2017 17:00:00 8,7 2,2 50 27 50 27 NW 1018,3 10
19.11.2017 16:00:00 8,5 3,1 42 23 - - NW 1018,3 10
19.11.2017 15:00:00 8,9 4,1 54 29 58 31 NW 1017,9 10
19.11.2017 14:00:00 9,2 3,3 57 31 61 33 NW 1017,9 10
19.11.2017 13:00:00 8,9 4,4 57 31 - - NW 1017,5 10
19.11.2017 12:00:00 9,0 3,5 61 33 61 33 NNW 1017,2 10
19.11.2017 11:00:00 8,8 3,0 55 30 61 33 NNW 1016,7 10
19.11.2017 10:00:00 9,0 3,2 67 36 - - NNW 1016,2 10
19.11.2017 09:00:00 8,5 4,2 65 35 65 35 NW 1015,6 10
19.11.2017 08:00:00 8,6 4,1 63 34 68 37 NNW 1015,0 10
19.11.2017 07:00:00 8,2 4,0 74 40 - - NW 1014,8 10
19.11.2017 06:00:00 8,8 3,2 67 36 76 41 NW 1014,2 10
19.11.2017 05:00:00 8,9 3,1 70 38 76 41 NW 1014,1 10
19.11.2017 04:00:00 9,1 3,0 70 38 - - NW 1013,4 10
19.11.2017 03:00:00 8,7 4,0 63 34 68 37 NW 1013,6 10
19.11.2017 02:00:00 8,8 3,3 65 35 68 37 NW 1013,4 10
19.11.2017 01:00:00 8,3 3,1 67 36 - - NW 1013,5 10
19.11.2017 00:00:00 8,7 3,0 68 37 68 37 NW 1013,5 10
18.11.2017 23:00:00 8,6 1,8 65 35 68 37 NW 1013,5 10
18.11.2017 22:00:00 8,4 1,6 55 30 - - NW 1013,9 10
18.11.2017 21:00:00 8,7 -2,2 55 30 65 35 NW 1013,9 10
18.11.2017 20:00:00 8,6 -1,1 59 32 58 31 WNW 1013,9 10
18.11.2017 19:00:00 8,6 -1,5 57 31 - - NW 1014,1 10
18.11.2017 18:00:00 8,6 -0,1 46 25 58 31 NW 1014,3 10
18.11.2017 17:00:00 8,6 -0,1 54 29 58 31 NW 1014,5 10
18.11.2017 16:00:00 8,8 0,5 55 30 - - WNW 1014,5 10
18.11.2017 15:00:00 9,0 -1,6 54 29 65 35 NW 1014,4 10
18.11.2017 14:00:00 8,8 -1,0 55 30 58 31 NW 1014,5 10
18.11.2017 13:00:00 8,7 0,5 59 32 - - NW 1014,3 10
18.11.2017 12:00:00 8,7 0,7 55 30 58 31 NW 1014,4 10
18.11.2017 11:00:00 8,6 4,3 50 27 58 31 WNW 1014,3 10
18.11.2017 10:00:00 8,2 3,2 57 31 - - WNW 1014,3 10
18.11.2017 09:00:00 7,0 4,1 63 34 79 43 NW 1013,9 9
18.11.2017 08:00:00 9,7 4,6 68 37 79 43 W 1012,9 10
18.11.2017 07:00:00 9,1 5,9 63 34 - - - 1013,3 10
18.11.2017 06:00:00 9,1 5,0 55 30 72 39 W 1014,0 10
18.11.2017 05:00:00 9,3 4,8 57 31 68 37 - 1014,7 10
18.11.2017 04:00:00 9,3 5,2 54 29 - - - 1015,9 10
18.11.2017 03:00:00 9,2 4,9 63 34 68 37 W 1016,7 10
18.11.2017 02:00:00 9,3 5,1 59 32 65 35 W 1017,8 10
18.11.2017 01:00:00 9,4 4,8 59 32 - - W 1018,6 10
18.11.2017 00:00:00 9,2 4,2 50 27 58 31 - 1019,1 10
17.11.2017 23:00:00 9,3 4,5 39 21 54 29 W 1020,1 10
17.11.2017 22:00:00 9,3 4,5 55 30 - - W 1020,5 10
17.11.2017 21:00:00 9,2 3,8 54 29 58 31 W 1021,0 10
17.11.2017 20:00:00 9,2 4,4 52 28 54 29 W 1021,6 10
17.11.2017 19:00:00 9,0 4,2 48 26 - - W 1022,2 10
17.11.2017 18:00:00 9,0 3,8 39 21 47 25 W 1022,7 10
17.11.2017 17:00:00 9,2 3,6 41 22 47 25 W 1023,2 10
17.11.2017 16:00:00 9,2 3,2 44 24 - - W 1023,6 10
17.11.2017 15:00:00 9,1 3,3 42 23 47 25 W 1023,9 10
17.11.2017 14:00:00 9,4 3,1 41 22 43 23 W 1024,5 10
17.11.2017 13:00:00 9,1 3,3 35 19 - - W 1024,9 10
17.11.2017 12:00:00 9,4 4,1 41 22 43 23 W 1025,7 10

tt = Température de l'air
td = dewpoint
ff = Vitesse du vent
fx = gusts
dd = Direction du vent
ppp = reduced air pressure
vv = visibility

stations d'obs. à proximité